FW8793 Weather Reports


Display with metric or nautical units.
time (UTC)temp
F
wind
direction
speed
MPH
gust
MPH
rain 1hr
in
rain 24hr
in
rain mn
in
humidity
%
barometer
mb
20260505102000 46 214 1.0 4.0 0.00 0.08 0.00 80 1002.9
20260505100959 47 210 1.0 3.0 0.00 0.08 0.00 78 1002.9
20260505100004 47 207 2.0 6.0 0.00 0.08 0.00 76 1002.8
20260505095000 48 241 1.0 3.0 0.00 0.08 0.00 74 1002.9
20260505094000 48 223 2.0 3.0 0.00 0.08 0.00 73 1002.2
20260505092959 49 227 1.0 3.0 0.00 0.08 0.00 72 1001.9
20260505092001 49 236 1.0 4.0 0.00 0.08 0.00 72 1001.8
20260505090958 49 238 1.0 4.0 0.00 0.08 0.00 72 1001.8
20260505084000 50 206 1.0 3.0 0.00 0.08 0.00 70 1001.3
20260505082001 50 229 1.0 2.0 0.00 0.08 0.00 72 1001.2
20260505080005 49 228 1.0 3.0 0.00 0.08 0.00 76 1000.9
20260505074958 49 202 0.0 0.0 0.00 0.08 0.00 78 1000.9
20260505074000 50 228 1.0 3.0 0.00 0.08 0.00 80 1000.6
20260505072002 50 223 2.0 5.0 0.00 0.08 0.00 82 1000.8
20260505070959 50 232 2.0 3.0 0.00 0.08 0.00 85 1000.7
20260505070003 50 238 2.0 6.0 0.00 0.08 0.00 86 1000.5
20260505064958 50 210 1.0 3.0 0.00 0.08 0.00 86 1000.4
20260505064000 51 210 1.0 3.0 0.00 0.08 0.00 86 1000.3
20260505063000 52 216 2.0 5.0 0.00 0.08 0.00 86 1000.1
20260505061959 52 242 1.0 4.0 0.00 0.08 0.00 86 1000.1
20260505061001 52 202 1.0 4.0 0.00 0.08 0.00 86 1000.1
20260505060001 52 216 1.0 4.0 0.00 0.08 0.00 85 1000.1
20260505055000 53 240 2.0 5.0 0.00 0.08 0.00 84 1000.0
20260505053959 54 232 2.0 7.0 0.00 0.08 0.00 84 999.7
20260505051959 55 225 2.0 6.0 0.00 0.08 0.00 83 999.3
20260505051000 56 169 3.0 6.0 0.00 0.08 0.00 82 999.5
20260505040005 61 193 2.0 8.0 0.00 0.08 0.00 77 998.8
20260505033958 62 225 2.0 5.0 0.00 0.08 0.08 74 998.5
20260505033000 62 208 3.0 8.0 0.00 0.08 0.08 74 998.3
20260505031958 62 227 3.0 9.0 0.00 0.08 0.08 74 998.0
20260505030002 60 234 2.0 7.0 0.00 0.08 0.08 76 997.3
20260505024959 60 230 2.0 5.0 0.01 0.08 0.08 77 997.2
20260505023959 60 230 2.0 12.0 0.08 0.08 0.08 78 997.1
20260505023000 60 222 3.0 8.0 0.08 0.08 0.08 79 997.2
20260505022000 60 215 4.0 9.0 0.08 0.08 0.08 80 997.4
20260505021000 60 224 4.0 13.0 0.08 0.08 0.08 80 997.4
20260505020001 62 227 4.0 11.0 0.08 0.08 0.08 78 997.5
20260505014959 67 271 5.0 10.0 0.07 0.07 0.07 72 997.9
20260505012958 68 248 6.0 14.0 0.00 0.00 0.00 64 996.7
20260505011959 69 173 4.0 9.0 0.00 0.00 0.00 63 996.6
20260505010959 69 258 4.0 13.0 0.00 0.00 0.00 62 996.5
20260505010002 70 228 4.0 12.0 0.00 0.00 0.00 61 996.4
20260505003959 71 225 5.0 14.0 0.00 0.00 0.00 57 996.4
20260505003000 71 264 3.0 10.0 0.00 0.00 0.00 56 996.3
20260505001958 71 248 4.0 13.0 0.00 0.00 0.00 52 996.1
20260505001000 72 219 4.0 10.0 0.00 0.00 0.00 48 996.2
20260505000003 72 215 3.0 9.0 0.00 0.00 0.00 45 996.2
20260504235002 72 229 2.0 8.0 0.00 0.00 0.00 45 996.0
20260504234000 72 201 2.0 6.0 0.00 0.00 0.00 45 996.2
20260504233002 73 244 2.0 5.0 0.00 0.00 0.00 46 996.3
20260504232000 73 189 3.0 9.0 0.00 0.00 0.00 44 996.5
20260504231000 73 205 3.0 10.0 0.00 0.00 0.00 45 996.7
20260504230002 73 231 3.0 12.0 0.00 0.00 0.00 45 996.8
20260504224959 73 200 4.0 11.0 0.00 0.00 0.00 44 997.1
20260504224001 73 196 3.0 8.0 0.00 0.00 0.00 47 997.2
20260504222959 73 236 3.0 9.0 0.00 0.00 0.00 45 997.4
20260504222001 73 257 4.0 11.0 0.00 0.00 0.00 45 997.6
20260504221000 73 227 3.0 7.0 0.00 0.00 0.00 45 997.7
20260504220005 74 238 3.0 10.0 0.00 0.00 0.00 46 997.8
20260504214959 74 221 4.0 14.0 0.00 0.00 0.00 43 997.8
20260504214000 74 231 4.0 8.0 0.00 0.00 0.00 46 997.9
20260504212959 74 250 5.0 15.0 0.00 0.00 0.00 45 998.0
20260504210004 74 220 7.0 17.0 0.00 0.00 0.00 44 998.4
20260504205001 74 248 6.0 14.0 0.00 0.00 0.00 41 998.7
20260504203002 75 204 6.0 17.0 0.00 0.00 0.00 42 998.7
20260504202000 74 193 6.0 14.0 0.00 0.00 0.00 41 999.0
20260504201001 74 254 7.0 23.0 0.00 0.00 0.00 37 999.1
20260504200002 74 271 6.0 12.0 0.00 0.00 0.00 38 999.2
20260504192000 74 212 7.0 20.0 0.00 0.00 0.00 40 999.3
20260504190003 75 206 6.0 14.0 0.00 0.00 0.00 39 999.3
20260504185001 75 240 6.0 14.0 0.00 0.00 0.00 37 999.3
20260504184001 74 241 6.0 12.0 0.00 0.00 0.00 37 999.2
20260504182959 74 229 5.0 18.0 0.00 0.00 0.00 37 999.2
20260504182000 74 202 6.0 15.0 0.00 0.00 0.00 34 999.3
20260504181001 74 227 5.0 15.0 0.00 0.00 0.00 34 999.4
20260504175000 74 266 6.0 14.0 0.00 0.00 0.00 34 999.6
20260504173959 74 165 5.0 14.0 0.00 0.00 0.00 34 999.8
20260504173000 74 248 6.0 15.0 0.00 0.00 0.00 39 999.9
20260504171959 73 160 7.0 18.0 0.00 0.00 0.00 37 1000.1
20260504171001 74 205 5.0 15.0 0.00 0.00 0.00 36 1000.2